Temp
-6 -7 -6 -6 -6 -7 -7 -7 -7 -7 -7 -7 -7 -7 -7 -7 -7 -8 -7 -7 -8 -8 -8 -8 -8 -8 -8 -7 -7 -8 -8 -8 -7 -7 -7 -7 -7 -7 -8 -8 -8 -8 -8 -7 -7 -7 -7 -7 -8
-7 -7 -7 -6 -6 -7 -8 -7 -7 -7 -6 -6 -7 -7 -7 -7 -7 -8 -7 -8 -8 -7 -8 -8 -8 -8 -8 -8 -8 -8 -8 -8 -8 -7 -7 -7 -8 -8 -8 -8 -8 -8 -8 -8 -8 -8 -8 -8 -8
-7 -7 -7 -7 -6 -7 -8 -8 -7 -7 -6 -7 -7 -7 -7 -7 -7 -8 -9 -8 -8 -7 -7 -8 -7 -8 -8 -8 -9 -9 -9 -9 -8 -8 -8 -8 -8 -8 -8 -8 -8 -8 -9 -9 -9 -9 -9 -9 -9
-7 -7 -7 -7 -7 -8 -8 -8 -7 -8 -7 -8 -7 -7 -8 -8 -8 -8 -8 -8 -8 -8 -7 -7 -7 -8 -8 -8 -9 -9 -9 -9 -10 -9 -9 -9 -9 -8 -8 -9 -9 -9 -9 -9 -9 -9 -10 -10 -10
-8 -7 -7 -7 -7 -8 -8 -8 -8 -8 -8 -8 -7 -8 -8 -8 -7 -7 -7 -7 -7 -8 -7 -7 -7 -8 -8 -9 -8 -9 -9 -9 -9 -10 -9 -9 -10 -9 -10 -10 -10 -10 -9 -9 -9 -10 -11 -10 -10
-8 -7 -7 -7 -7 -8 -8 -8 -8 -8 -8 -8 -7 -7 -8 -8 -8 -7 -7 -6 -7 -7 -7 -7 -7 -8 -9 -8 -9 -9 -10 -10 -10 -10 -10 -10 -10 -11 -10 -10 -11 -10 -10 -10 -10 -10 -11 -11 -11
-8 -8 -7 -7 -8 -8 -8 -8 -8 -8 -8 -8 -7 -7 -7 -7 -8 -8 -8 -7 -8 -8 -8 -8 -8 -8 -9 -8 -8 -9 -10 -10 -11 -11 -11 -11 -11 -11 -11 -11 -11 -11 -11 -10 -10 -11 -11 -12 -12
-8 -8 -8 -7 -8 -8 -8 -9 -9 -8 -8 -8 -7 -8 -8 -8 -8 -8 -8 -8 -8 -8 -8 -8 -9 -8 -9 -8 -9 -9 -10 -10 -11 -11 -11 -11 -11 -11 -11 -12 -11 -12 -11 -11 -11 -11 -11 -12 -12
-9 -8 -8 -8 -8 -8 -9 -9 -9 -9 -8 -8 -8 -8 -8 -8 -8 -8 -8 -8 -8 -9 -8 -9 -9 -9 -10 -10 -10 -10 -9 -11 -11 -11 -11 -11 -11 -11 -11 -12 -12 -12 -11 -11 -11 -11 -11 -12 -12
-9 -8 -8 -8 -9 -9 -10 -9 -9 -9 -9 -9 -8 -8 -8 -8 -9 -8 -8 -9 -9 -9 -9 -9 -10 -10 -10 -10 -11 -11 -10 -11 -11 -11 -11 -11 -11 -11 -11 -12 -12 -12 -12 -12 -11 -11 -12 -12 -12
-10 -8 -9 -9 -9 -10 -11 -10 -10 -9 -10 -10 -9 -8 -8 -8 -8 -8 -8 -9 -10 -10 -10 -10 -10 -11 -11 -11 -11 -12 -12 -12 -12 -12 -11 -11 -11 -11 -11 -12 -12 -12 -12 -12 -12 -12 -13 -13 -12
-11 -10 -10 -9 -10 -11 -11 -10 -9 -9 -9 -10 -10 -9 -9 -9 -9 -9 -9 -9 -9 -10 -10 -10 -11 -11 -11 -11 -11 -12 -12 -12 -12 -12 -12 -11 -12 -11 -11 -12 -12 -13 -13 -12 -12 -13 -13 -13 -13
-11 -11 -10 -10 -11 -12 -11 -10 -9 -8 -9 -9 -9 -9 -9 -9 -10 -9 -10 -9 -10 -11 -11 -11 -11 -11 -11 -11 -12 -12 -12 -12 -12 -13 -13 -12 -12 -12 -11 -12 -12 -13 -13 -13 -13 -13 -13 -13 -13
-11 -11 -11 -11 -11 -11 -11 -10 -9 -8 -9 -9 -9 -10 -10 -9 -9 -9 -10 -10 -11 -11 -11 -12 -12 -11 -11 -12 -12 -12 -11 -12 -12 -13 -13 -12 -12 -12 -11 -12 -12 -13 -13 -12 -13 -13 -13 -13 -13
-12 -12 -11 -11 -11 -11 -12 -10 -9 -9 -10 -9 -9 -9 -9 -9 -9 -10 -10 -10 -10 -10 -11 -10 -10 -10 -11 -11 -11 -11 -11 -11 -12 -13 -12 -12 -12 -12 -12 -12 -12 -13 -13 -13 -13 -13 -13 -13 -13
-12 -12 -12 -11 -11 -11 -11 -8 -9 -10 -10 -10 -10 -10 -10 -9 -9 -10 -10 -10 -9 -9 -9 -9 -10 -10 -10 -10 -11 -11 -11 -12 -12 -13 -13 -13 -12 -12 -12 -13 -13 -13 -13 -13 -13 -13 -13 -13 -13
-12 -11 -11 -11 -11 -12 -11 -8 -9 -10 -10 -10 -10 -10 -10 -10 -10 -9 -10 -9 -9 -9 -9 -9 -9 -10 -10 -10 -10 -11 -11 -12 -13 -13 -13 -13 -13 -13 -13 -13 -13 -13 -13 -13 -13 -13 -13 -13 -14
-11 -11 -11 -11 -11 -12 -11 -9 -10 -11 -11 -10 -10 -9 -9 -9 -9 -10 -9 -9 -9 -9 -9 -9 -9 -10 -10 -10 -10 -11 -11 -12 -13 -13 -13 -13 -13 -13 -13 -13 -13 -13 -12 -13 -13 -13 -13 -14 -14
-12 -11 -11 -11 -11 -11 -11 -10 -11 -11 -10 -9 -9 -9 -8 -8 -8 -8 -8 -9 -9 -10 -9 -9 -9 -10 -9 -10 -10 -10 -11 -12 -12 -13 -13 -13 -13 -13 -13 -13 -13 -12 -13 -13 -13 -13 -13 -14 -14
-12 -12 -11 -12 -12 -11 -11 -10 -10 -10 -9 -9 -9 -8 -8 -8 -7 -8 -9 -9 -9 -9 -10 -10 -9 -9 -9 -10 -10 -10 -11 -12 -12 -12 -13 -13 -13 -13 -13 -12 -12 -12 -12 -13 -13 -13 -13 -13 -13
-13 -12 -12 -12 -12 -11 -11 -10 -10 -9 -9 -9 -8 -8 -8 -8 -8 -8 -8 -9 -9 -10 -10 -9 -9 -10 -10 -10 -10 -10 -11 -11 -12 -12 -13 -13 -13 -13 -12 -12 -12 -12 -12 -12 -12 -12 -13 -13 -13
-13 -13 -12 -12 -12 -11 -12 -10 -10 -9 -9 -8 -8 -9 -9 -8 -8 -9 -9 -9 -10 -10 -9 -9 -9 -9 -10 -9 -9 -10 -11 -11 -12 -12 -13 -13 -13 -12 -12 -12 -12 -12 -12 -12 -12 -13 -13 -13 -13
-13 -13 -13 -12 -12 -12 -11 -11 -7 -9 -8 -9 -9 -9 -9 -9 -9 -9 -9 -10 -9 -9 -8 -9 -9 -9 -9 -9 -10 -11 -11 -12 -12 -13 -13 -12 -12 -12 -12 -12 -12 -12 -12 -12 -12 -12 -13 -13 -13
-15 -15 -14 -13 -13 -12 -11 -12 -8 -9 -9 -9 -9 -9 -9 -9 -9 -9 -9 -9 -9 -8 -8 -9 -9 -9 -9 -9 -10 -11 -12 -12 -12 -13 -12 -12 -12 -12 -12 -12 -12 -12 -12 -12 -12 -12 -13 -13 -13
-17 -15 -15 -14 -13 -11 -11 -12 -9 -9 -9 -9 -9 -9 -9 -10 -10 -10 -9 -8 -8 -8 -9 -9 -9 -9 -9 -10 -11 -11 -12 -12 -12 -12 -12 -12 -12 -12 -12 -12 -12 -12 -12 -12 -12 -13 -13 -13 -13
-18 -17 -15 -13 -13 -11 -11 -10 -9 -9 -10 -9 -9 -9 -9 -10 -10 -9 -8 -8 -9 -9 -8 -9 -9 -9 -10 -11 -11 -12 -12 -12 -12 -11 -11 -12 -12 -12 -12 -12 -12 -12 -12 -12 -12 -13 -13 -13 -13
-20 -18 -16 -16 -14 -12 -11 -10 -9 -9 -9 -10 -11 -11 -10 -9 -9 -8 -9 -9 -8 -8 -9 -9 -10 -10 -11 -11 -11 -12 -12 -11 -11 -11 -11 -12 -12 -12 -12 -12 -11 -12 -12 -12 -13 -13 -13 -13 -13
-20 -19 -18 -17 -15 -12 -11 -10 -9 -9 -9 -11 -11 -11 -10 -9 -9 -8 -8 -8 -8 -9 -9 -9 -10 -10 -11 -11 -12 -12 -11 -11 -11 -11 -11 -12 -12 -12 -12 -12 -11 -12 -12 -12 -12 -13 -13 -13 -13
-21 -20 -19 -18 -16 -13 -11 -10 -10 -10 -9 -9 -10 -10 -10 -10 -9 -9 -8 -8 -9 -10 -9 -10 -10 -10 -11 -11 -11 -11 -11 -11 -11 -11 -11 -11 -11 -12 -12 -12 -12 -12 -11 -12 -12 -12 -13 -13 -13
-22 -21 -20 -18 -15 -13 -11 -11 -10 -10 -9 -9 -10 -10 -10 -10 -10 -9 -9 -9 -10 -9 -10 -10 -10 -11 -11 -11 -11 -11 -11 -11 -11 -11 -11 -11 -11 -12 -12 -12 -12 -12 -12 -12 -12 -12 -13 -13 -13
Height
5864 5867 5869 5871 5874 5873 5873 5876 5876 5878 5878 5878 5881 5881 5883 5883 5884 5886 5886 5887 5887 5888 5888 5888 5887 5883 5880 5877 5875 5873 5872 5871 5869 5866 5864 5862 5860 5858 5856 5854 5852 5850 5848 5846 5844 5843 5842 5840 5838
5860 5863 5866 5866 5871 5871 5871 5872 5874 5874 5875 5876 5876 5877 5879 5880 5881 5881 5883 5883 5885 5885 5887 5886 5885 5881 5879 5877 5875 5872 5871 5870 5868 5865 5862 5860 5858 5856 5855 5852 5850 5848 5845 5842 5840 5839 5837 5836 5833
5855 5858 5862 5862 5867 5868 5869 5869 5870 5872 5874 5875 5874 5874 5874 5879 5879 5879 5880 5880 5882 5883 5884 5883 5882 5879 5877 5875 5873 5870 5867 5866 5864 5861 5860 5858 5855 5853 5851 5849 5846 5844 5842 5840 5838 5835 5833 5832 5830
5851 5853 5858 5861 5866 5865 5866 5868 5868 5870 5871 5869 5871 5875 5876 5876 5877 5876 5876 5876 5879 5880 5881 5880 5878 5876 5874 5873 5870 5867 5864 5862 5859 5859 5856 5854 5852 5850 5848 5845 5843 5841 5839 5838 5835 5832 5829 5828 5827
5845 5849 5852 5858 5862 5863 5862 5864 5864 5866 5867 5869 5870 5870 5873 5875 5875 5873 5872 5872 5875 5876 5879 5877 5875 5874 5871 5871 5867 5862 5860 5858 5856 5853 5850 5847 5846 5843 5842 5840 5838 5836 5835 5833 5830 5827 5825 5823 5822
5840 5843 5847 5853 5857 5857 5858 5860 5860 5863 5864 5865 5867 5867 5869 5872 5871 5871 5870 5870 5873 5874 5876 5874 5870 5870 5869 5867 5864 5860 5856 5854 5851 5849 5846 5844 5840 5837 5835 5834 5832 5831 5829 5828 5826 5823 5820 5817 5816
5833 5836 5841 5847 5849 5852 5855 5852 5855 5860 5860 5858 5862 5863 5864 5866 5866 5869 5867 5868 5870 5871 5872 5868 5865 5864 5864 5863 5861 5858 5853 5849 5847 5844 5842 5839 5837 5834 5832 5830 5828 5825 5824 5822 5820 5819 5816 5813 5811
5826 5828 5833 5840 5843 5848 5848 5847 5847 5851 5855 5857 5857 5860 5859 5860 5862 5862 5863 5866 5866 5867 5867 5863 5862 5860 5859 5858 5853 5853 5852 5847 5843 5841 5838 5835 5833 5830 5828 5825 5823 5820 5818 5817 5815 5813 5810 5808 5806
5817 5817 5824 5833 5838 5843 5842 5844 5841 5844 5848 5850 5851 5853 5855 5857 5856 5856 5859 5859 5857 5858 5860 5860 5858 5857 5854 5851 5847 5845 5846 5845 5841 5838 5834 5831 5829 5826 5824 5820 5817 5815 5813 5811 5810 5807 5805 5803 5800
5807 5809 5820 5831 5830 5833 5835 5838 5837 5837 5840 5842 5845 5848 5849 5849 5850 5852 5852 5850 5849 5849 5849 5851 5849 5848 5847 5844 5840 5838 5838 5838 5836 5833 5830 5827 5824 5821 5818 5815 5812 5810 5808 5806 5804 5802 5800 5797 5794
5797 5801 5817 5821 5819 5820 5823 5828 5831 5828 5832 5836 5839 5843 5842 5841 5846 5847 5846 5844 5843 5843 5842 5843 5841 5840 5839 5836 5835 5832 5830 5830 5829 5827 5824 5821 5818 5815 5813 5809 5806 5804 5802 5800 5798 5796 5795 5792 5789
5788 5794 5804 5813 5808 5811 5816 5818 5819 5821 5827 5832 5833 5833 5836 5836 5839 5840 5840 5839 5838 5838 5838 5837 5836 5833 5831 5829 5829 5827 5825 5823 5823 5820 5817 5814 5812 5810 5807 5803 5800 5799 5797 5795 5792 5790 5789 5785 5782
5776 5785 5789 5799 5797 5800 5803 5808 5810 5813 5819 5828 5827 5828 5831 5832 5834 5833 5831 5832 5832 5831 5831 5830 5827 5826 5824 5823 5823 5822 5820 5817 5815 5813 5810 5807 5806 5804 5801 5797 5793 5792 5790 5787 5785 5784 5782 5780 5775
5768 5770 5775 5783 5789 5787 5789 5795 5796 5804 5816 5820 5821 5824 5825 5827 5827 5826 5826 5828 5827 5825 5824 5822 5820 5819 5819 5817 5816 5815 5813 5810 5808 5806 5804 5800 5799 5798 5794 5792 5787 5786 5785 5779 5779 5776 5775 5772 5768
5753 5754 5758 5766 5774 5779 5782 5781 5786 5800 5807 5807 5811 5813 5817 5818 5818 5819 5821 5821 5821 5819 5816 5815 5814 5813 5813 5811 5809 5809 5806 5803 5801 5799 5796 5794 5792 5791 5788 5786 5783 5780 5778 5775 5772 5769 5767 5764 5761
5736 5740 5741 5756 5760 5767 5770 5768 5784 5792 5793 5799 5802 5802 5802 5810 5810 5810 5813 5814 5815 5811 5810 5810 5807 5807 5806 5804 5804 5801 5799 5797 5795 5792 5790 5787 5785 5784 5782 5779 5775 5774 5772 5768 5765 5761 5759 5755 5752
5719 5726 5734 5742 5749 5748 5752 5759 5771 5779 5783 5786 5790 5791 5792 5795 5799 5802 5805 5805 5803 5802 5801 5801 5800 5800 5800 5797 5796 5793 5791 5790 5788 5786 5784 5781 5779 5778 5777 5774 5769 5765 5765 5761 5757 5753 5749 5746 5743
5713 5719 5720 5721 5732 5731 5739 5747 5758 5764 5767 5773 5776 5779 5781 5785 5789 5794 5795 5795 5793 5793 5793 5794 5794 5794 5792 5790 5787 5785 5784 5782 5780 5778 5777 5775 5773 5771 5770 5767 5764 5759 5755 5752 5749 5746 5742 5738 5734
5694 5697 5703 5710 5716 5723 5728 5734 5743 5747 5754 5758 5767 5772 5774 5777 5782 5783 5785 5784 5784 5785 5786 5787 5787 5786 5784 5782 5780 5778 5776 5774 5771 5770 5769 5768 5767 5765 5764 5761 5758 5754 5749 5746 5742 5738 5734 5730 5726
5676 5680 5688 5696 5705 5710 5717 5719 5730 5735 5744 5750 5757 5761 5763 5766 5769 5772 5774 5775 5777 5777 5779 5779 5779 5778 5776 5775 5773 5770 5767 5764 5762 5762 5763 5762 5760 5759 5758 5754 5750 5748 5744 5739 5735 5730 5727 5723 5719
5659 5666 5674 5684 5691 5699 5703 5705 5718 5729 5734 5742 5747 5752 5756 5759 5760 5763 5764 5766 5767 5770 5771 5771 5770 5769 5769 5767 5765 5762 5759 5757 5757 5757 5756 5756 5754 5753 5750 5747 5744 5741 5737 5732 5728 5725 5721 5717 5715
5642 5653 5664 5670 5682 5686 5692 5690 5705 5724 5728 5732 5737 5743 5749 5750 5751 5754 5755 5756 5759 5761 5763 5762 5762 5762 5762 5760 5757 5756 5754 5753 5752 5751 5751 5750 5748 5745 5742 5740 5737 5734 5730 5726 5723 5721 5716 5714 5711
5633 5641 5650 5660 5668 5672 5678 5683 5708 5716 5720 5727 5733 5737 5737 5739 5741 5744 5747 5749 5752 5755 5754 5755 5756 5756 5754 5752 5751 5750 5749 5748 5747 5746 5746 5744 5742 5739 5736 5733 5731 5728 5724 5722 5720 5717 5714 5711 5707
5617 5626 5638 5645 5652 5653 5673 5678 5697 5709 5717 5721 5722 5726 5729 5731 5733 5737 5741 5745 5747 5746 5747 5749 5749 5747 5747 5746 5745 5744 5744 5743 5742 5741 5740 5738 5735 5733 5731 5728 5726 5723 5721 5719 5717 5715 5711 5707 5703
5601 5613 5624 5632 5634 5652 5668 5667 5693 5705 5706 5709 5712 5715 5720 5723 5727 5731 5736 5737 5738 5740 5742 5742 5742 5741 5740 5739 5739 5739 5738 5738 5737 5736 5734 5732 5730 5728 5725 5723 5721 5719 5718 5716 5714 5711 5707 5704 5701
5594 5601 5613 5622 5625 5650 5656 5662 5684 5693 5699 5701 5703 5705 5711 5714 5719 5725 5728 5730 5732 5733 5735 5735 5735 5733 5733 5733 5734 5733 5733 5732 5732 5731 5729 5727 5725 5722 5720 5719 5717 5716 5715 5713 5711 5708 5704 5701 5698
5586 5591 5611 5611 5620 5638 5645 5665 5675 5679 5689 5696 5700 5698 5701 5707 5714 5718 5721 5723 5726 5727 5729 5729 5727 5727 5728 5729 5729 5729 5728 5728 5727 5725 5724 5721 5719 5718 5716 5714 5714 5713 5712 5710 5708 5704 5700 5698 5696
5578 5590 5594 5599 5615 5629 5642 5654 5662 5668 5674 5688 5690 5695 5699 5704 5709 5713 5716 5719 5721 5722 5723 5722 5722 5723 5724 5725 5725 5725 5725 5724 5722 5721 5719 5717 5715 5713 5712 5711 5710 5709 5708 5707 5705 5701 5698 5696 5694
5572 5579 5584 5595 5607 5621 5634 5645 5653 5656 5667 5680 5683 5687 5693 5699 5704 5708 5712 5714 5716 5718 5718 5718 5719 5719 5720 5721 5721 5722 5721 5720 5719 5717 5714 5713 5711 5709 5708 5707 5707 5707 5706 5705 5702 5699 5697 5695 5692
5566 5572 5578 5584 5600 5612 5622 5635 5642 5650 5660 5671 5678 5681 5687 5696 5700 5703 5708 5710 5712 5713 5712 5714 5714 5715 5717 5717 5718 5718 5717 5716 5714 5713 5711 5708 5707 5706 5705 5705 5705 5704 5704 5703 5700 5698 5696 5694 5691
Wind_Speed
23 23 24 25 25 24 27 25 23 21 21 20 16 18 19 19 22 20 19 22 26 23 20 22 20 17 19 23 27 28 28 26 25 25 26 26 26 26 25 25 26 27 28 28 26 26 27 26 25
26 25 26 27 26 26 27 27 27 26 24 22 21 20 19 21 24 26 25 29 30 26 19 24 20 16 19 24 28 29 27 26 23 22 23 22 23 24 25 24 26 26 25 25 25 24 23 24 22
27 28 29 29 27 27 27 28 27 25 23 21 22 25 22 20 25 27 28 33 34 25 22 26 21 17 20 25 30 32 30 26 24 22 21 21 21 24 25 27 27 25 25 26 28 26 24 23 23
29 31 30 29 27 28 29 28 28 26 26 27 26 24 24 18 25 31 35 32 27 26 20 24 25 19 20 28 33 35 32 27 22 19 23 22 23 23 25 26 27 27 26 25 27 27 26 24 24
32 32 29 27 29 29 32 32 32 32 30 29 27 30 27 23 26 34 38 27 25 20 22 27 25 22 22 28 34 37 32 29 26 25 24 27 27 27 26 25 27 28 30 29 30 26 25 23 23
38 37 37 32 33 33 34 35 36 34 33 33 33 36 34 26 23 30 35 31 26 23 29 26 26 23 23 31 35 35 36 31 30 29 27 27 29 31 32 30 31 29 31 31 30 27 26 25 25
40 39 38 38 37 39 37 40 38 38 38 39 36 37 38 38 35 34 35 30 28 32 25 25 25 26 29 34 35 33 37 34 31 31 30 30 30 32 33 34 32 33 33 32 33 29 23 22 23
44 44 43 42 39 40 41 39 43 47 43 43 43 39 41 41 42 42 40 36 35 29 23 22 25 29 32 36 41 36 32 31 33 32 33 32 31 32 34 35 34 34 35 34 33 29 23 21 21
48 51 47 42 41 41 42 40 45 45 44 44 48 46 45 45 44 42 39 38 35 31 25 26 24 29 39 40 41 43 35 30 30 32 33 35 33 34 34 35 35 36 36 36 35 30 27 25 22
53 55 47 41 43 40 43 47 45 47 46 48 49 44 43 44 45 38 40 37 35 35 35 31 34 37 38 43 45 46 44 42 32 33 34 35 35 35 35 35 35 36 38 37 36 32 29 30 26
57 58 49 45 48 47 50 52 52 55 54 49 52 48 45 46 38 38 35 33 37 40 40 38 40 41 43 47 47 49 51 51 36 32 35 38 35 36 36 35 35 35 38 38 37 32 31 32 29
58 57 54 49 52 52 50 54 59 62 60 52 45 45 47 39 35 39 39 35 37 36 38 41 44 45 45 51 50 55 57 48 36 35 37 40 37 36 36 35 33 34 38 37 36 32 34 35 34
60 60 60 54 54 54 54 59 61 62 58 51 46 44 42 38 42 45 45 39 35 34 38 43 48 48 49 52 55 56 48 40 35 35 39 41 39 35 35 34 33 33 37 40 37 34 36 39 38
64 65 64 60 62 61 59 61 66 62 54 54 51 49 48 46 41 43 40 37 35 35 38 44 47 50 52 56 56 57 45 34 30 33 36 40 36 34 36 31 31 35 35 41 42 33 40 40 39
71 70 71 69 66 67 66 68 67 60 53 51 47 50 53 47 42 40 35 37 36 38 42 46 48 48 52 55 56 49 36 32 32 34 35 37 34 34 36 32 35 33 36 41 42 37 42 39 37
76 81 78 71 70 67 65 66 63 61 61 61 51 49 51 50 40 41 38 36 36 43 45 44 49 48 47 50 46 41 38 34 33 31 34 34 33 33 34 36 36 35 36 41 42 40 40 39 36
71 72 76 80 73 72 71 69 68 63 59 58 55 52 54 44 45 41 38 40 42 46 45 46 47 45 43 47 45 43 38 35 32 30 36 35 31 30 33 37 40 39 37 38 39 40 40 37 36
69 67 68 71 72 74 79 68 65 63 64 61 56 51 51 48 47 45 44 46 47 47 47 45 44 42 41 44 44 43 40 36 35 36 35 34 28 31 34 39 41 38 37 36 38 38 37 36 34
64 67 68 67 68 67 68 67 64 63 58 56 49 46 45 44 45 46 46 48 45 47 43 40 39 41 41 43 44 42 38 38 37 33 33 28 27 31 37 40 36 32 34 36 36 35 31 29 27
67 67 65 63 61 61 62 65 62 60 53 47 43 42 42 41 42 45 46 41 41 39 40 39 38 39 41 39 42 40 37 36 31 29 27 25 29 33 38 34 29 32 31 33 31 28 26 24 22
69 68 65 63 60 59 60 63 56 54 51 45 42 39 37 36 39 38 34 33 36 38 38 37 37 40 35 38 39 34 32 30 26 23 24 25 31 35 32 28 29 28 30 29 24 26 23 21 21
72 68 65 65 59 59 58 64 56 47 46 45 39 34 27 30 34 32 32 36 40 37 34 36 38 34 34 38 35 27 26 22 21 19 24 28 31 29 28 28 28 26 27 24 23 23 20 19 19
68 68 67 64 62 61 60 60 47 41 42 36 32 28 32 33 33 32 35 38 37 30 31 38 34 33 36 36 27 25 21 18 19 23 25 29 24 25 26 25 22 24 22 21 21 16 17 18 17
66 64 63 64 65 67 57 56 48 37 34 33 34 33 33 32 35 36 34 32 30 31 32 33 34 37 34 31 23 22 18 20 21 24 25 21 20 22 24 23 21 20 19 18 16 16 19 15 12
62 64 63 63 66 59 55 58 40 32 38 37 36 36 33 32 33 31 27 27 27 27 30 33 35 35 31 22 22 18 20 21 23 24 18 19 20 23 23 21 18 17 17 15 15 16 15 14 9
52 58 62 66 66 55 53 53 38 35 38 26 20 33 35 33 32 24 22 23 25 28 28 29 31 30 22 20 18 17 19 21 22 17 18 19 21 21 21 18 16 15 14 12 14 15 15 10 9
40 51 51 54 60 60 58 44 40 42 39 29 16 20 28 28 23 20 21 24 23 19 23 22 23 18 17 16 15 16 19 19 15 16 19 20 21 21 17 16 15 14 9 11 14 17 14 9 11
38 42 47 51 54 58 55 49 45 44 40 31 29 18 16 21 22 23 24 21 18 18 16 12 11 12 14 13 13 17 17 13 15 19 21 20 19 17 15 14 14 12 7 13 15 13 11 8 8
30 41 47 47 48 53 54 52 49 49 42 32 38 36 30 23 21 23 18 19 15 16 12 11 11 11 12 11 14 15 12 12 17 20 19 17 16 13 14 14 11 9 8 10 14 9 9 10 11
33 34 45 50 51 53 55 55 54 50 45 37 29 38 28 23 24 25 18 17 15 16 12 11 9 10 11 12 13 12 11 15 17 16 12 12 11 12 13 9 8 7 8 9 10 8 12 10 9
Wind_Direction
227 223 216 217 211 207 215 223 226 230 234 247 252 267 279 305 309 287 304 303 304 304 321 327 342 343 358 358 360 357 352 347 342 337 331 328 320 314 312 310 307 307 307 307 306 305 302 295 286
222 218 215 213 215 209 211 226 229 230 236 246 256 260 271 292 303 302 297 308 307 304 303 310 335 335 356 352 348 348 347 342 341 335 331 322 310 305 303 297 296 301 304 304 305 305 303 300 296
217 219 216 213 215 213 212 220 228 235 244 250 257 265 270 296 299 298 287 288 298 297 296 300 321 338 348 345 344 348 337 333 332 327 322 318 310 298 296 295 296 298 301 304 304 304 304 300 298
220 220 219 219 214 204 213 222 229 232 238 242 252 268 285 283 288 291 288 284 289 286 279 302 311 322 336 340 332 338 341 333 329 321 320 318 304 297 294 298 298 297 299 302 302 301 295 298 298
226 219 224 224 214 213 221 226 231 235 239 248 254 258 263 271 285 293 293 265 273 274 291 304 304 316 324 331 331 337 334 334 324 325 317 317 319 318 310 307 308 307 305 305 309 303 295 290 292
229 225 225 220 213 214 226 233 235 238 241 245 248 257 265 270 281 286 283 258 261 269 302 301 298 308 310 325 330 333 333 331 325 319 318 319 324 325 322 315 312 313 310 311 313 307 299 295 292
233 230 224 215 209 218 227 237 241 243 241 246 251 256 262 271 274 281 277 268 273 288 294 301 300 304 309 317 319 328 333 325 321 315 317 317 324 324 321 316 313 314 313 310 312 307 295 298 300
233 232 227 223 216 216 220 230 242 246 246 248 254 255 263 268 279 277 276 271 280 286 290 296 296 289 300 311 311 321 328 316 312 310 310 311 316 319 318 313 311 309 310 310 309 306 303 301 303
233 234 230 226 222 217 220 227 239 245 247 247 251 255 265 272 276 274 281 289 293 292 294 287 298 292 304 309 312 314 320 313 304 302 303 301 306 310 313 310 308 306 307 307 306 302 306 302 305
234 237 232 231 231 222 221 226 235 242 247 251 255 259 264 274 280 275 288 294 292 294 297 301 305 307 308 310 312 314 316 325 301 296 299 297 298 306 311 306 303 302 304 303 302 299 305 307 309
233 236 234 230 231 224 226 222 226 238 240 244 252 262 269 279 271 283 289 287 289 293 296 303 306 304 306 310 311 310 312 317 309 294 294 295 298 302 308 301 297 298 301 299 302 300 305 309 310
241 236 234 231 232 227 226 232 229 232 238 243 253 263 269 267 278 284 288 286 287 291 293 295 300 303 302 304 307 308 308 310 299 292 291 293 300 303 304 298 293 294 296 296 301 304 305 310 310
245 245 241 238 233 229 227 232 238 239 238 239 249 255 260 264 288 286 281 280 292 296 291 292 294 294 295 298 299 305 303 301 292 293 296 295 299 303 299 294 285 293 292 290 292 300 304 306 307
243 247 247 243 238 236 231 230 239 245 243 246 248 255 258 264 276 277 272 275 281 284 285 287 285 288 292 293 296 299 296 294 299 291 301 304 303 302 297 290 287 290 291 289 294 303 304 302 302
240 245 246 244 239 242 248 244 243 250 247 250 263 270 257 260 267 266 265 268 277 276 277 277 280 283 287 288 291 293 287 297 302 303 300 303 303 302 295 291 291 291 291 289 296 306 301 299 297
242 241 243 244 244 245 245 247 249 252 253 253 267 268 268 257 259 256 264 268 268 268 271 277 281 279 283 285 288 283 287 292 298 296 301 304 298 299 295 298 294 293 291 297 304 303 298 297 295
244 244 247 244 246 249 248 253 251 253 256 257 259 262 262 258 261 257 262 267 267 268 272 274 274 279 280 282 280 281 286 289 298 294 296 296 294 295 291 295 295 295 298 298 300 299 296 296 293
250 250 247 244 243 248 248 251 253 257 259 252 255 254 255 253 255 254 257 259 262 266 272 274 275 273 277 278 277 280 283 289 292 289 288 287 289 286 293 292 293 299 302 301 297 295 296 296 293
245 246 246 245 246 247 249 250 252 255 254 252 256 259 255 259 261 258 258 259 261 263 268 271 272 272 272 275 278 278 287 291 291 280 281 283 283 284 287 290 294 297 298 294 293 297 296 295 288
239 241 243 245 246 248 248 248 250 254 253 252 253 252 252 249 250 252 256 257 255 256 259 262 267 268 271 274 276 283 289 291 281 273 281 276 277 284 285 291 300 296 292 295 299 301 297 297 301
237 238 239 241 243 246 247 247 246 245 251 252 252 252 251 253 256 253 251 248 247 252 257 263 265 262 272 275 280 289 293 291 281 276 274 275 282 284 290 298 295 293 297 302 301 296 301 312 308
233 235 237 239 240 243 247 247 242 242 248 253 254 254 256 254 251 245 238 236 240 246 258 263 262 271 275 281 290 289 286 283 274 273 273 278 282 289 298 294 295 297 299 300 299 301 314 308 304
234 233 234 237 237 239 241 247 234 242 244 251 256 251 244 245 242 232 234 240 247 258 259 253 263 270 279 287 284 282 279 272 272 274 278 282 288 295 295 297 294 297 301 298 300 308 307 303 298
229 230 232 234 235 237 238 245 237 241 244 245 244 245 245 245 238 235 242 249 253 255 253 258 265 274 280 283 275 276 269 271 278 279 283 287 294 297 300 295 296 293 291 293 296 293 300 310 295
225 226 227 231 234 236 238 241 239 237 243 237 237 240 240 241 239 242 243 248 255 260 261 263 272 275 275 268 267 262 270 278 281 282 286 290 296 302 296 292 291 284 287 290 295 307 318 312 306
228 227 226 229 232 231 233 237 231 233 236 233 251 236 235 239 239 242 243 239 245 251 263 269 271 272 265 259 253 266 276 283 284 286 293 296 303 301 295 288 278 275 280 289 294 312 322 303 313
223 224 225 228 232 229 232 231 227 230 227 241 229 207 223 235 231 225 228 235 250 259 269 267 266 257 250 242 261 274 281 283 285 295 296 302 303 294 284 286 272 270 287 294 300 324 322 312 305
224 221 223 223 227 227 227 226 225 228 230 211 206 202 206 218 217 220 228 238 246 260 260 262 252 236 243 254 269 275 279 278 294 293 298 297 292 284 285 289 270 272 290 294 313 324 329 322 327
219 222 222 222 224 225 224 224 224 231 230 219 222 227 234 229 213 221 235 239 249 253 246 243 243 252 253 268 275 278 275 287 290 293 294 291 281 283 284 276 263 260 276 295 325 320 327 323 327
213 217 223 221 219 219 220 219 223 226 226 227 224 226 220 204 228 234 237 241 247 246 242 242 269 264 266 273 274 276 279 286 289 292 295 285 287 282 277 251 253 265 271 290 329 335 339 347 342